Regional Weather Roundup
Issued by NWS Sioux Falls, SD

Home | Current Version | Previous Version | Graphics & Text | Print | Product List | Glossary On
Versions: 1 2 3 4 5 6 7 8 9 10 11 12 13 14 15 16 17 18 19 20 21 22 23 24 25 26 27 28 29 30 31 32 33 34 35 36 37 38 39 40 41 42 43 44 45 46 47 48 49 50
000
ASUS43 KFSD 281310
RWRFSD

WEATHER ROUNDUP FOR SE SOUTH DAKOTA/SW MINNESOTA/NW IOWA
NATIONAL WEATHER SERVICE SIOUX FALLS SD
800 AM CDT SUN AUG 28 2016

NOTE: "FAIR" INDICATES FEW OR NO CLOUDS BELOW 12,000 FEET WITH NO
SIGNIFICANT WEATHER AND OR OBSTRUCTIONS TO VISIBILITY.


SDZ038>040-050-052>070-281400-
SOUTHEAST SOUTH DAKOTA

CITY           SKY/WX    TMP DP  RH WIND       PRES   REMARKS
BROOKINGS      PTSUNNY   65  63  93 SE10      30.07S
CHAMBERLAIN    SUNNY     72  68  87 S5        29.98R
HURON          SUNNY     67  64  90 SE12G22   29.99R
MADISON        PTSUNNY   64  64 100 S8        30.07S
MITCHELL       SUNNY     68  65  90 SE9       30.01S
SIOUX FALLS    MOSUNNY   67  65  93 SE7       30.08S
WINNER         FAIR      72  65  78 SW20G25   29.97R
YANKTON        SUNNY     66  63  88 SE8       30.04R
$$

MNZ071-072-080-081-089-090-097-098-281400-
SOUTHWEST MINNESOTA

CITY           SKY/WX    TMP DP  RH WIND       PRES   REMARKS
FAIRMONT       SUNNY     65  64  97 S6        30.13R
JACKSON          N/A     64  63  94 S6        30.12F FOG
LUVERNE        MOSUNNY   63  61  94 SE3       30.11S
MARSHALL       SUNNY     64  62  93 SE8       30.11F
MONTEVIDEO     CLOUDY    64  64 100 N7        30.11R THUNDER
REDWOOD FALLS  CLOUDY    65  62  90 SE5       30.13S
TRACY          CLOUDY    62  62  99 NE3       30.13F FOG
WINDOM         SUNNY     66  64  94 CALM      30.12S FOG
WORTHINGTON    SUNNY     65  64  97 CALM      30.13R FOG
$$

IAZ001>003-012>014-020>022-031-032-NEZ013-014-SDZ071-281400-
NORTHWEST IOWA

CITY           SKY/WX    TMP DP  RH WIND       PRES   REMARKS
CHEROKEE       CLOUDY    65  65 100 S5        30.11R
DENISON        FOG       64  64 100 MISG      30.10S VSB<1/4
ESTHERVILLE    FOG       63  63 100 S10       30.13R VSB<1/4
LE MARS        SUNNY     68  66  94 S7        30.09S
ORANGE CITY    SUNNY     66  64  94 SE3       30.10S
SHELDON        SUNNY     66  66 100 SE7       30.10R
SIOUX CITY     CLOUDY    66  63  90 SE7       30.08S FOG
SPENCER        FOG       65  63  93 SE8       30.13R VSB 3/4
STORM LAKE     CLOUDY    66  66 100 S7        30.13R FOG
$$

ABBREVIATIONS USED IN REMARKS
   TC - TEMPERATURE IN CELSIUS
  WCI - WIND CHILL INDEX
   HX - HEAT INDEX
  VSB - VISIBILITY





USA.gov is the U.S. government's official web portal to all federal, state and local government web resources and services.